FW1478 Weather Reports


time (UTC)temp
C
wind
direction
speed
KPH
gust
KPH
rain 1hr
cm
rain 24hr
cm
rain mn
cm
humidity
%
barometer
mb
20190422174537 16 23 3.2 11.3 0.00 0.10 0.03 77 1020.1
20190422173031 15 23 1.6 12.9 0.00 0.10 0.03 78 1020.6
20190422171602 15 28 3.2 16.1 0.00 0.10 0.03 80 1020.5
20190422170025 15 354 3.2 9.7 0.00 0.13 0.03 81 1020.5
20190422164520 15 90 3.2 6.4 0.00 0.13 0.03 84 1020.5
20190422163008 13 11 1.6 8.0 0.00 0.13 0.03 89 1020.7
20190422161506 13 29 1.6 8.0 0.00 0.13 0.03 89 1020.8
20190422160006 13 7 4.8 6.4 0.00 0.18 0.03 89 1021.1
20190422154533 13 15 3.2 8.0 0.00 0.18 0.03 88 1021.1
20190422153008 13 45 3.2 9.7 0.00 0.18 0.03 87 1021.1
20190422151502 13 34 1.6 6.4 0.00 0.18 0.03 88 1021.1
20190422150214 13 7 0.0 4.8 0.00 0.18 0.03 89 1021.3
20190422144651 13 359 3.2 8.0 0.00 0.18 0.03 89 1021.3
20190422143240 13 18 1.6 8.0 0.00 0.18 0.03 90 1021.4
20190422141654 13 33 4.8 9.7 0.00 0.18 0.03 90 1021.4
20190422140135 12 117 0.0 3.2 0.00 0.18 0.03 94 1021.3
20190422134636 12 2 1.6 8.0 0.00 0.18 0.03 94 1021.3
20190422133143 12 27 1.6 4.8 0.00 0.18 0.03 96 1021.3
20190422131645 11 35 1.6 6.4 0.00 0.18 0.03 96 1021.2
20190422130126 11 18 1.6 3.2 0.00 0.18 0.03 97 1021.1
20190422124616 11 46 0.0 6.4 0.00 0.18 0.03 97 1021.2
20190422123126 11 310 0.0 3.2 0.00 0.18 0.03 97 1020.9
20190422121555 11 24 0.0 3.2 0.00 0.18 0.03 97 1020.8
20190422120145 11 83 0.0 3.2 0.00 0.18 0.03 97 1020.8
20190422114608 10 290 0.0 1.6 0.00 0.18 0.03 97 1020.8
20190422113044 10 26 0.0 1.6 0.00 0.18 0.03 97 1020.8
20190422111618 10 32 0.0 1.6 0.00 0.18 0.03 97 1020.7
20190422110108 10 31 0.0 1.6 0.00 0.18 0.03 97 1020.7
20190422104559 10 53 0.0 1.6 0.00 0.18 0.03 97 1020.7
20190422103050 9 160 0.0 0.0 0.00 0.18 0.03 97 1020.5
20190422101628 9 160 0.0 0.0 0.00 0.18 0.03 97 1020.6
20190422100054 9 160 0.0 0.0 0.00 0.20 0.03 97 1020.4
20190422094603 9 160 0.0 0.0 0.00 0.20 0.03 97 1019.8
20190422093041 9 179 0.0 0.0 0.00 0.20 0.03 96 1019.7
20190422090034 9 179 0.0 1.6 0.00 0.25 0.03 96 1019.4
20190422084539 9 180 0.0 0.0 0.00 0.25 0.03 96 1019.7
20190422083108 9 179 0.0 0.0 0.00 0.25 0.03 96 1019.7
20190422081546 9 179 0.0 0.0 0.00 0.25 0.03 96 1020.0
20190422080040 9 179 0.0 0.0 0.00 0.25 0.03 96 1020.1
20190422074617 9 179 0.0 0.0 0.00 0.25 0.03 96 1020.0
20190422073036 9 179 0.0 0.0 0.03 0.25 0.03 96 1019.9
20190422071529 10 156 0.0 0.0 0.03 0.25 0.03 96 1019.7
20190422070020 10 171 0.0 0.0 0.03 0.28 0.03 96 1019.8
20190422064526 10 144 0.0 1.6 0.03 0.28 0.03 96 1019.7
20190422063027 10 79 0.0 1.6 0.00 0.25 0.00 96 1019.9
20190422061534 10 232 0.0 1.6 0.00 0.25 0.00 96 1019.9
20190422060103 10 153 0.0 0.0 0.00 0.25 0.00 96 1019.6
20190422054527 10 153 0.0 0.0 0.00 0.25 0.00 96 1019.7
20190422053017 10 153 0.0 0.0 0.00 0.25 0.00 96 1019.5
20190422051534 10 154 0.0 0.0 0.00 0.25 0.00 96 1019.8
20190422050015 10 154 0.0 0.0 0.00 0.25 0.00 96 1019.7
20190422044511 10 151 0.0 3.2 0.00 0.25 0.00 96 1019.9
20190422043016 10 145 0.0 0.0 0.00 0.25 0.00 96 1020.1
20190422041520 10 145 0.0 0.0 0.00 0.25 0.00 96 1019.9
20190422040016 10 142 0.0 0.0 0.00 0.28 0.25 96 1020.0
20190422034723 10 160 0.0 1.6 0.00 0.28 0.25 96 1020.1
20190422033130 10 263 0.0 1.6 0.00 0.28 0.25 96 1020.2
20190422031654 10 196 0.0 3.2 0.00 0.28 0.25 96 1020.0
20190422030131 11 148 0.0 0.0 0.00 0.30 0.25 96 1020.0
20190422024623 11 145 0.0 1.6 0.00 0.30 0.25 96 1019.8
20190422023255 11 139 0.0 1.6 0.00 0.30 0.25 96 1019.9
20190422021714 11 204 0.0 1.6 0.00 0.30 0.25 96 1019.6
20190422020218 11 180 0.0 1.6 0.00 0.30 0.25 96 1019.6
20190422014613 11 262 0.0 3.2 0.00 0.30 0.25 96 1019.4
20190422013157 11 176 0.0 4.8 0.00 0.30 0.25 95 1019.3
20190422011636 11 217 0.0 3.2 0.00 0.30 0.25 96 1019.2
20190422010133 12 150 0.0 0.0 0.00 0.30 0.25 96 1019.1
20190422004655 12 190 0.0 0.0 0.00 0.30 0.25 95 1018.9
20190422003111 12 160 0.0 0.0 0.00 0.30 0.25 95 1018.5
20190422001610 12 143 0.0 1.6 0.00 0.30 0.25 95 1018.0
20190422000120 12 150 1.6 3.2 0.00 0.30 0.25 95 1017.9
20190421234627 12 153 0.0 1.6 0.00 0.30 0.25 95 1017.7
20190421233126 13 147 1.6 3.2 0.00 0.30 0.25 95 1017.7
20190421231602 13 193 0.0 3.2 0.00 0.30 0.25 95 1017.6
20190421230058 13 162 0.0 1.6 0.00 0.30 0.25 95 1017.6
20190421224623 13 201 0.0 1.6 0.00 0.30 0.25 95 1017.7
20190421223210 13 203 0.0 4.8 0.00 0.30 0.25 94 1017.5
20190421221620 13 155 0.0 6.4 0.00 0.30 0.25 93 1017.4
20190421220112 13 205 1.6 8.0 0.00 0.30 0.25 93 1017.2
20190421214627 13 206 0.0 4.8 0.00 0.30 0.25 92 1017.1
20190421213114 13 178 1.6 8.0 0.00 0.30 0.25 92 1017.1
20190421211645 14 141 1.6 6.4 0.00 0.30 0.25 92 1017.0
20190421210214 14 195 0.0 8.0 0.00 0.41 0.25 93 1016.6
20190421204644 14 122 1.6 8.0 0.00 0.41 0.25 92 1016.7
20190421203103 14 177 1.6 9.7 0.00 0.41 0.25 92 1016.8
20190421201559 14 206 0.0 6.4 0.03 0.41 0.25 93 1017.2
20190421200132 14 219 1.6 4.8 0.08 0.41 0.25 93 1017.0
20190421194621 15 198 1.6 6.4 0.08 0.41 0.25 92 1016.8
20190421193120 15 252 0.0 3.2 0.08 0.41 0.25 92 1016.9
20190421191549 15 239 0.0 6.4 0.05 0.38 0.23 91 1016.9
20190421190059 15 220 0.0 6.4 0.00 0.36 0.18 88 1017.3
20190421184630 16 143 1.6 8.0 0.00 0.36 0.18 88 1017.2
20190421183110 15 110 1.6 12.9 0.00 0.36 0.18 89 1017.2
20190421181547 16 156 1.6 4.8 0.00 0.36 0.18 90 1016.9
20190421180044 15 210 1.6 6.4 0.00 0.53 0.18 91 1017.0